Location: Aix-en-Ergny
(50.5839°N, 1.9996°E)
Time: 23:35:11
(UTC+00:00)

Cosmos 1726 - Pass Details

Date: 23 October 2019
Orbit: 483 x 500 km, 82.5° (Epoch: 14 November)

Event Time Altitude Azimuth Distance (km) Brightness Sun altitude
Rises 03:55:50 0° 355° (N) 2,567 5.8 -24.6°
Reaches altitude 10° 03:58:01 10° 2° (N) 1,683 4.9 -24.2°
Maximum altitude 04:01:32 43° 75° (ENE) 699 3.2 -23.7°
Drops below altitude 10° 04:05:03 10° 148° (SSE) 1,677 5.0 -23.1°
Sets 04:07:13 0° 155° (SSE) 2,556 5.9 -22.8°
